This demonstration page uses our WeatherBlox Daily Observations layout. Learn more.

Left ArrowRight Arrow

31.31129, -92.44514

Hourly Observations for August 6, 2022

Temp ( °F °C ) Dew Point ( °F °C ) Humidity (%) Winds ( mph kmh ) Pressure ( in mb ) Visibility ( mi km ) Precip ( " mm )
12:53 am 00:53 Clear 78 25.6 73 22.8 85 85 SE 8 13 30.04 1017 10 16 0.00 0.00
1:53 am 01:53 Clear 77 25 73 22.8 88 88 SE 8 13 30.04 1017 10 16 0.00 0.00
2:53 am 02:53 Clear 77 25 73 22.8 88 88 SE 6 9 30.03 1017 10 16 0.00 0.00
3:53 am 03:53 Clear 77 25 73 22.8 88 88 ESE 6 9 30.04 1017 10 16 0.00 0.00
4:53 am 04:53 Clear 77 25 73 22.8 88 88 Calm 30.05 1018 10 16 0.00 0.00
5:53 am 05:53 Clear 76 24.4 73 22.8 91 91 E 5 7 30.07 1018 10 16 0.00 0.00
6:53 am 06:53 Sunny 76 24.4 73 22.8 91 91 ESE 7 11 30.09 1019 9 14 0.00 0.00
7:53 am 07:53 Sunny 78 25.6 74 23.3 87 87 ESE 7 11 30.11 1020 10 16 0.00 0.00
8:53 am 08:53 Sunny 82 27.8 75 23.9 79 79 SE 12 19 30.11 1020 10 16 0.00 0.00
9:53 am 09:53 Partly Cloudy 86 30 75 23.9 70 70 SE 9 15 30.12 1020 10 16 0.00 0.00
10:03 am 10:03 Mostly Cloudy 87 30.6 75 23.9 67 67 SSE 9 15 30.10 1019 10 16 0.00 0.00
10:49 am 10:49 Partly Cloudy 90 32 73 23 59 59 SSE 14 22 30.10 1019 10 16 0.00 0.00
10:53 am 10:53 Partly Cloudy 90 32.2 74 23.3 59 59 SE 14 22 30.11 1020 10 16 0.00 0.00
11:53 am 11:53 Mostly Cloudy 92 33.3 74 23.3 56 56 ESE 13 20 30.11 1020 10 16 0.00 0.00
12:53 pm 12:53 Mostly Cloudy 91 32.8 73 22.8 56 56 SE 14 22 30.08 1019 10 16 0.00 0.00
1:53 pm 13:53 Mostly Cloudy 93 33.9 73 22.8 52 52 SE 12 19 30.07 1018 10 16 0.00 0.00
2:53 pm 14:53 Partly Cloudy 94 34.4 71 21.7 48 48 SSE 12 19 30.06 1018 10 16 0.00 0.00
3:53 pm 15:53 Sunny 96 35.6 70 21.1 43 43 S 12 19 30.04 1017 10 16 0.00 0.00
4:53 pm 16:53 Mostly Cloudy 94 34.4 75 23.9 54 54 SSE 20 31 30.03 1017 10 16 0.00 0.00
5:53 pm 17:53 Sunny 89 31.7 73 22.8 59 59 SSE 15 24 30.04 1017 10 16 0.00 0.00
6:53 pm 18:53 Sunny 87 30.6 73 22.8 63 63 SSE 10 17 30.05 1018 10 16 0.00 0.00
7:53 pm 19:53 Sunny 85 29.4 73 22.8 68 68 SSE 7 11 30.07 1018 10 16 0.00 0.00
8:53 pm 20:53 Clear 83 28.3 73 22.8 72 72 SE 9 15 30.09 1019 10 16 0.00 0.00
9:53 pm 21:53 Clear 82 27.8 73 22.8 74 74 SE 7 11 30.10 1019 10 16 0.00 0.00
10:53 pm 22:53 Clear 80 26.7 73 22.8 79 79 SSE 6 9 30.10 1019 10 16 0.00 0.00
11:53 pm 23:53 Clear 79 26.1 74 23.3 85 85 Calm 30.10 1019 10 16 0.00 0.00

Powered by AerisWeather